Location: Kawakawa
(35.3830°S, 174.0670°E)
Time: 22:52:02
(UTC+12:00)

Cosmos 1515 Rocket - Pass Details

Date: 24 January 2019
Orbit: 605 x 631 km, 82.5° (Epoch: 21 April)

Event Time Altitude Azimuth Distance (km) Brightness Sun altitude
Exits shadow 21:23:48 - 18° (NNE) 2,494 6.2 -9.1°
Reaches altitude 10° 21:25:05 10° 23° (NNE) 2,016 5.7 -9.4°
Maximum altitude 21:29:09 35° 89° (E) 1,026 4.3 -10.1°
Drops below altitude 10° 21:33:17 10° 155° (SSE) 2,040 6.3 -10.8°
Sets 21:35:40 0° 163° (SSE) 2,955 7.3 -11.2°
